www.pogodaiklimat.ru

Погода и климат >> Архив погоды >> Хорватия >> Dubrovnik-Cilipi


ПОГОДА в Dubrovnik-Cilipi

  • Прогноз погоды в Dubrovnik-Cilipi
  • Монитор погоды в Dubrovnik-Cilipi
  • Климат города

АРХИВ ПОГОДЫ в Dubrovnik-Cilipi

Время (UTC), дата Ветер
(напр.,м/с)
 
Видим.   Явления Облачность Т
(С)
Тd
(С)
f
(%)
Тe
(С)
Тes
(С)
Комфортность P
(гПа)
Po
(гПа)
Тmin
(С)
Tmax
(С)
R
(мм)
R24
(мм)
S
(см)
12 12.11 ЮВ 6 30 км 8/5 400 м
[Cu med, cong Cs]
+16.3 +11.9 75 +15 +16 1012.0 993.5
15 12.11 ЮВ 5 30 км 9/9 1000 м
[Sc Ac As]
+15.3 +12.2 82 +14 +14 1009.9 991.4
18 12.11 ЮВ 7 25 км 10/10 800 м
[Cu Sc]
+15.6 +9.9 69 +14 +14 1008.0 989.5 +17.0
21 12.11 ЮВ 7 3000 м в посл. час гроза 10/9 60 м
[Cu Sc Ac As]
+16.6 +16.5 99 +15 +15 1005.3 987.0
00 13.11 Ю 8 7000 м н/о +16.5 +16.4 99 +15 +15 1003.3 985.0
03 13.11 Ю 7 7000 м 10/9 150 м
[Cu Sc Ac As]
+16.5 +16.4 99 +15 +15 1001.1 982.9
06 13.11 Ю 8 7000 м слабый дождь 10/9 150 м
[Sc Ac As]
+16.4 +16.3 99 +15 +15 1000.1 981.9 +15.4 3
09 13.11 Ю 7 10 км {дождь} 10/8 180 м
[Cu Sc Ac As]
+16.8 +16.6 99 +16 +16 1000.2 982.0
12 13.11 ЮВ 7 10 км {дождь} 10/6 120 м
[Sc Ac As]
+16.5 +16.4 99 +15 +15 999.9 981.7
15 13.11 В 8 15 км 10/10 300 м
[St]
+14.7 +13.8 94 +12 +12 1000.2 981.8
18 13.11 ЮВ 10 20 км слабый дождь {гроза} 10/10 360 м
[Cu Sc]
+14.1 +10.6 79 +11 +11 1000.5 982.1 +17.1 2
21 13.11 ЮВ 5 12 км дождь {гроза} 10/5 90 м
[Cu Sc Ac As]
+12.2 +12.0 99 +10 +10 1002.9 984.3
00 14.11 В 5 16 км слабый дождь 10/5 600 м
[Cu Sc Ac As]
+12.0 +11.8 99 +9 +9 1004.3 985.7 14
03 14.11 В 2 20 км {дождь} 10/3 1500 м
[Sc Ac As]
+12.5 +10.7 89 +12 +12 1005.1 986.5
06 14.11 В 3 25 км в посл. час дождь 10/8 1080 м
[Sc Ac As]
+14.3 +9.0 70 +13 +13 1006.9 988.3 +11.4 16
09 14.11 В 4 30 км 10/9 1000 м
[Sc Ac As]
+15.8 +9.0 64 +15 +15 1008.4 989.9
12 14.11 СВ 6 18 км слабый дождь {ливн. осадки} 10/1 1000 м
[Sc As op]
+12.3 +7.7 73 +10 +10 1009.7 990.9 3
15 14.11 С 10 10 км дождь 10/4 1000 м
[Sc As op]
+11.6 +7.7 77 +8 +8 1009.7 990.9
18 14.11 СВ 10 18 км слабый дождь 10/5 1500 м
[Sc As op]
+12.3 +6.8 69 +9 +9 1011.1 992.3 +15.9 11
21 14.11 СВ 7 25 км слабый дождь 9/1 1000 м
[Sc Ac As]
+12.1 +6.6 69 +9 +9 1012.6 993.8
00 15.11 СВ 10 20 км слабый дождь 10/5 2000 м
[Sc Ac As]
+12.5 +5.4 62 +9 +9 1012.2 993.4 1
03 15.11 СВ 8 20 км {дождь} 9/0
[Ac As]
+13.4 +4.9 56 +11 +11 1011.8 993.1
06 15.11 СВ 6 20 км слабый дождь 10/5 1000 м
[Sc Ac As]
+14.0 +6.2 59 +12 +12 1013.9 995.2 +11.7 2
09 15.11 В 5 20 км слабый дождь 10/6 1500 м
[Sc Ac As]
+13.4 +11.0 85 +11 +12 1015.9 997.1
12 15.11 СВ 5 20 км слабый дождь 10/6 1500 м
[Sc Ac As]
+13.3 +8.4 72 +11 +12 1016.3 997.5 2
15 15.11 СВ 4 20 км {дождь} 8/3 1000 м
[Sc Ac As]
+13.8 +7.9 68 +12 +12 1016.4 997.6
18 15.11 СВ 7 20 км {дождь} 5/0
[Ac trans]
+13.0 +6.1 63 +11 +11 1016.7 997.8 +14.3 3
21 15.11 С 9 30 км 3/0
[Ac trans]
+12.5 +4.6 59 +9 +9 1016.5 997.6
00 16.11 С 8 30 км 10/0
[Ac As]
+13.3 +4.1 54 +11 +11 1015.5 996.7
03 16.11 С 10 30 км 9/1 1000 м
[Sc Ac As]
+12.6 +3.7 55 +9 +9 1014.5 995.6
06 16.11 СВ 8 25 км {дождь} 10/8 1000 м
[Sc Ac As]
+13.9 +4.3 52 +12 +12 1013.9 995.1 +12.4 0.0
09 16.11 ЮВ 10 12 км слабый дождь 10/5 300 м
[Cu Sc Ac As]
+13.5 +11.3 87 +10 +10 1017.3 998.5
12 16.11 В 4 25 км в посл. час дождь 9/3 1500 м
[Sc Ac As]
+16.3 +6.8 53 +16 +16 1014.8 996.2 0.4
15 16.11 ЮВ 4 30 км 8/3 1500 м
[Sc Ac trans Cs]
+17.5 +6.3 48 +17 +17 1014.5 996.0
18 16.11 СВ 5 30 км 3/0
[Ac As]
+14.9 +5.1 52 +14 +14 1014.7 996.0 +19.0 0.4
21 16.11 С 9 30 км 4/0
[Ac trans]
+13.5 +3.7 51 +11 +11 1015.2 996.4
00 17.11 С 9 30 км н/о +12.6 +2.8 51 +10 +10 1014.0 995.1
03 17.11 С 9 30 км н/о +12.0 +2.3 51 +9 +9 1013.5 994.6
04 17.11 С 9 30 км ясно +12.0 +2.3 51 +9 +9 1013.5 994.6
06 17.11 С 9 30 км 5/0
[Ac trans Ci fib]
+12.3 +2.1 50 +9 +9 1013.5 994.6 +11.6
09 17.11 С 8 30 км 6/0
[Ac trans Ci fib]
+15.4 +3.7 46 +14 +14 1013.9 995.2
12 17.11 С 3 30 км 4/0
[Ac trans Ci fib]
+19.6 +4.8 38 +20 +23 1012.4 994.0
15 17.11 З 4 30 км 8/0
[Ac As]
+16.8 +7.2 53 +16 +16 1012.1 993.6
18 17.11 СВ 5 30 км ясно +14.6 +4.5 51 +13 +13 1012.8 994.1 +20.0
21 17.11 С 8 30 км 3/0
[Ac As]
+13.5 +3.1 49 +11 +11 1013.0 994.2
00 18.11 С 7 30 км 5/0
[Ac As]
+13.1 +2.8 50 +11 +11 1013.0 994.2
03 18.11 С 9 30 км ясно +12.1 +2.5 52 +9 +9 1012.4 993.5
06 18.11 СВ 7 30 км 1/0
[Ac As]
+11.8 +2.3 52 +9 +9 1012.4 993.5 +11.7
09 18.11 СВ 4 30 км 8/0
[Ac cast Ci fib]
+14.3 +4.0 50 +13 +14 1013.3 994.6
12 18.11 ЮЗ 3 30 км 9/0
[Ac trans]
+16.9 +7.8 55 +17 +18 1012.2 993.7
15 18.11 З 2 30 км 8/0
[Ac cast]
+14.7 +6.7 59 +15 +15 1011.9 993.2
18 18.11 В 2 30 км 1/0
[Ac trans]
+10.8 +7.2 78 +10 +10 1012.4 993.5 +18.8
21 18.11 С 6 30 км 10/0
[Ac As]
+13.0 +3.4 52 +11 +11 1012.5 993.7
00 19.11 С 6 30 км 8/0
[Ac As]
+12.4 +3.3 54 +10 +10 1012.1 993.3
03 19.11 СВ 4 30 км 8/0
[Ac As]
+12.2 +3.8 56 +10 +10 1011.2 992.4
06 19.11 СВ 4 30 км 4/1 600 м
[Sc Ci fib]
+11.5 +4.9 64 +9 +9 1011.5 992.6 +10.2
09 19.11 СЗ 1 30 км 9/5 600 м
[Sc Ac trans]
+14.1 +7.6 65 +15 +16 1011.5 992.8

 

Местоположение метеостанции Dubrovnik-Cilipi (Хорватия): широта 42.57 долгота 18.27 высота над уровнем моря 165 м.

В архиве по умолчанию представлена погода в Dubrovnik-Cilipi за последнюю неделю. Архивные данные за месяц целиком и за предыдущие месяцы, начиная с января 2011 года, Вы можете получить, выбрав интересующий диапазон дат из раскрывающегося списка и нажав кнопку "Ввод!".

Внимание! Время в таблицах - всемирное. Для получения местного времени необходимо прибавить поправку, которая в Dubrovnik-Cilipi равна 1 ч.

Смотрите также архив погоды в соседних городах и на ближайших метеорологических станциях:

Погода в Dubrovnik-Gorica (Хорватия) (18 км)
Погода в Tivat (Черногория) (42 км)
Погода в Niksic (Черногория) (60 км)
Погода в Neum (Босния и Герцеговина) (67 км)
Погода в Podgorica (Черногория) (83 км)
Погода в Podgorica-Grad (Черногория) (84 км)
Погода в Ploce (Хорватия) (86 км)
Погода в Bar (Черногория) (86 км)
Погода в Mostar (Босния и Герцеговина) (95 км)
Погода в Lastovo (Хорватия) (114 км)

Пояснения к столбцам:

Ветер - указаны скорость ветра в м/с - средняя за 10 мин, порывы в срок и между сроками (в фигурных скобках) и направление, откуда дует ветер: С - северный, СВ - северо-восточный, В - восточный, ЮВ - юго-восточный, Ю - южный, ЮЗ - юго-западный, З - западный, СЗ - северо-западный.
Видимость - горизонтальная дальность видимости в метрах или километрах. При видимости от 1 до 10 км при отсутствии осадков обычно наблюдается дымка, при ухудшении видимости до 1 км и менее - туман. В сухую погоду видимость может ухудшаться дымом, пылью или мглою.
Явления - указаны атмосферные явления, наблюдавшиеся в срок или в последний час перед сроком; фигурными скобками обозначены явления, наблюдавшиеся между сроками (за 1-3 часа до срока); квадратными скобками обозначены град или гололедные отложения с указанием их диаметра в мм.
Облачность - указаны через наклонную черту общая и нижняя облачность в баллах и высота нижней границы облаков в метрах; квадратными скобками обозначены формы облаков: Ci - перистые, Cs - перисто-слоистые, Cc - перисто-кучевые, Ac - высококучевые, As - высокослоистые, Sc - слоисто-кучевые, Ns - слоисто-дождевые, Cu - кучевые, Cb - кучево-дождевые. Подробнее классификацию облаков см. в Атласе облаков (PDF).
T - Температура воздуха - температура, измеренная на высоте 2 м над землей.
Td - Температура точки росы - температура, при понижении до которой содержащийся в воздухе водяной пар достигнет насыщения.
f - Относительная влажность воздуха - влажноcть воздуха, измеренная на высоте 2 м над землей.
Te - Эффективная температура - температура, которую ощущает одетый по сезону человек в тени. Характеристика душности погоды. При расчете учитывается влияние влажности воздуха и скорости ветра на теплоощущения человека.
Tes - Эффективная температура на солнце - температура, которую ощущает человек, с поправкой на солнечный нагрев. Характеристика знойности погоды. Зависит от высоты солнца над горизонтом, облачности и скорости ветра. Ночью, в пасмурную погоду, а также при ветре 12 м/с и более поправка равна нулю.
P - Атмосферное давление - приведенное к уровню моря атмосферное давление.
Po - Атмосферное давление - измеренное на уровне метеостанции атмосферное давление.
Tmin - Минимальная температура - минимум температуры воздуха на высоте 2 м над землей.
Tmax - Максимальная температура - максимум температуры воздуха на высоте 2 м над землей.
R - Количество осадков - Количество выпавших осадков за период времени, мм. При наведении курсора мыши на число - период времени, за который выпало указанное количество осадков.
R24 - Количество осадков - Количество выпавших осадков за 24 часа, мм.
S - Снежный покров - Высота снежного покрова, см. При наведении курсора мыши на число - состояние снежного покрова и степень покрытия местности в баллах.